Location: Unspecified
(0.0000°N, 0.0000°E)
Time: 13:29:51
(UTC+00:00)

JUGNU - Pass Details

Date: 25 February 2020
Orbit: 836 x 864 km, 20.0° (Epoch: 01 April)

Event Time Altitude Azimuth Distance (km) Brightness Sun altitude
Rises 20:35:18 0° 262° (W) 3,374 ? -35.0°
Reaches altitude 10° 20:38:24 10° 247° (WSW) 2,438 ? -35.8°
Enters shadow 20:42:05 22° 208° (SSW) 1,755 ? -36.7°
